Find Starlink 1876

NORAD ID: 47161 Int'l Des: 2020-088 Owner: SPXS Country: US Constellation: starlink operational
LEOCIRCULAR

リアルタイム位置

3D地球を読み込み中...

Starlink 1876について

説明を読み込み中...

次回通過

Passes for default location (London). Set your location on the main map for personalized predictions.

高度履歴

Loading altitude history...

軌道要素

1 47161U 20088AR 26126.50003471 .00092735 00000-0 56011-3 0 9996
2 47161 53.0463 345.9255 0005348 188.3654 158.7679 15.76884038 6021
Epoch: May 6, 2026 • Age: 5 hours

現在のステータス

高度 346.6 km
速度 7.71 km/s
衛星直下点 52.60°N, 56.1°W
打ち上げ日 Nov 25, 2020
運用期間 5.4 years
タイプ internet

技術仕様

分類 Payload
質量 260.00 kg
乾燥質量 248.00 kg
総質量 260.00 kg
長さ 0.20 m
直径 2.80 m
スパン 9.00 m
形状 Box + pan
製造者 SPXS
バスタイプ Starlink
フェーズステータス In Orbit
所有者/国 SPXS/US

Most Searched